Track INTELSAT 6B (PAS 6B) now! INTELSAT 6B (PAS 6B) is classified as:
1 25585U 98075A 21024.52057865 -.00000131 00000-0 00000-0 0 9997 2 25585 9.2749 43.5001 0012006 114.6376 257.9511 0.99151703 80461